Tracking 27122 objects as of 26-Mar-2023
HD Live streaming from Space Station
objects crossing your sky now

STARLINK-2432

Track STARLINK-2432 now!
10-day predictions
STARLINK-2432 is classified as:


NORAD ID: 47840
Int'l Code: 2021-018BF
Perigee: 553.0 km
Apogee: 554.7 km
Inclination: 53.1 °
Period: 95.6 minutes
Semi major axis: 6924 km
RCS: Unknown
Launch date: March 11, 2021
Source: United States (US)
Launch site: AIR FORCE EASTERN TEST RANGE (AFETR)
Your satellite tracking list
Your tracking list is empty




NASA's NSSDC Master Catalog

Two Line Element Set (TLE):
1 47840U 21018BF  23084.94718245  .00036708  00000-0  24596-2 0  9994
2 47840  53.0548  38.7667 0001194  81.4696 278.6428 15.06563076114132
Source of the keplerian elements: AFSPC